Copper Mountain, CO

9:23 AM MDT on September 17, 2019 (GMT -0600)
Copper Mountain

Weather History for KCCU - August, 2019

Change the Weather History Date:

Wednesday, August 21, 2019

  Actual Average Record
Temperature  
Mean Temperature 59 °F -  
Max Temperature 66 °F - 69 °F (2007)
Min Temperature 52 °F - 35 °F (2002)
Degree Days  
Heating Degree Days 6    
Month to date heating degree days 149  
Cooling Degree Days 0    
Month to date cooling degree days 0  
Growing Degree Days 8 (Base 50)    
Moisture  
Dew Point 28 °F    
Average Humidity 36    
Maximum Humidity 54    
Minimum Humidity 18    
Precipitation  
Precipitation 0.00 in - 0.24 in (2002)
Snow  
Snow 0.00 in - - ()
Snow Depth 0.00 in    
Sea Level Pressure  
Sea Level Pressure 30.65 in    
Wind  
Wind Speed 9 mph (SW)    
Max Wind Speed 21 mph    
Max Gust Speed 27 mph    
Visibility 10 miles    
Events Thunderstorm    
T = Trace of Precipitation, MM = Missing Value Source: NWS Daily Summary

Daily Weather History Graph

Daily Weather History Graph

Search for Another Location

Airport or City:

Astronomy

Aug. 21, 2019 Rise Set
Actual Time 6:22 AM MDT 7:52 PM MDT
Civil Twilight 5:54 AM MDT 8:20 PM MDT
Nautical Twilight 5:20 AM MDT 8:54 PM MDT
Astronomical Twilight 4:44 AM MDT 9:30 PM MDT
Moon 11:12 PM MDT (8/21) 11:59 AM MDT (8/21)
Length of Visible Light 14h 26m
Length of Day
13h 29m
Waning Gibbous, 68% of the Moon is Illuminated
Aug 21
Waning Gibbous
Aug 23
Last Quarter
Aug 30
New
Sep 5
First Quarter
Sep 13
Full

Hourly Weather History & Observations

Time (MDT) Temp. Dew Point Humidity Pressure Visibility Wind Dir Wind Speed Gust Speed Precip Events Conditions
12:08 AM 59.0 °F 28.4 °F 31% 30.70 in 10.0 mi South 6.9 mph - N/A   Clear
12:32 AM 59.0 °F 30.2 °F 34% 30.70 in 10.0 mi SW 11.5 mph - N/A   Clear
12:48 AM 59.0 °F 32.0 °F 36% 30.69 in 10.0 mi SW 10.4 mph - N/A   Clear
1:13 AM 55.4 °F 32.0 °F 41% 30.69 in 10.0 mi SSW 8.1 mph - N/A   Clear
1:34 AM 55.4 °F 32.0 °F 41% 30.69 in 10.0 mi SSW 8.1 mph - N/A   Clear
1:50 AM 55.4 °F 32.0 °F 41% 30.68 in 10.0 mi South 6.9 mph - N/A   Clear
2:13 AM 59.0 °F 32.0 °F 36% 30.68 in 10.0 mi SE 6.9 mph - N/A   Clear
2:31 AM 57.2 °F 32.0 °F 38% 30.68 in 10.0 mi South 9.2 mph - N/A   Clear
2:49 AM 57.2 °F 30.2 °F 36% 30.68 in 10.0 mi South 10.4 mph - N/A   Clear
3:08 AM 55.4 °F 30.2 °F 38% 30.67 in 10.0 mi South 11.5 mph - N/A   Clear
3:31 AM 55.4 °F 30.2 °F 38% 30.67 in 10.0 mi SSW 10.4 mph - N/A   Clear
3:50 AM 55.4 °F 30.2 °F 38% 30.67 in 10.0 mi SW 6.9 mph - N/A   Clear
4:14 AM 53.6 °F 30.2 °F 41% 30.67 in 10.0 mi South 8.1 mph - N/A   Clear
4:32 AM 53.6 °F 30.2 °F 41% 30.68 in 10.0 mi South 8.1 mph - N/A   Clear
4:51 AM 55.4 °F 30.2 °F 38% 30.68 in 10.0 mi SW 9.2 mph - N/A   Clear
5:11 AM 55.4 °F 30.2 °F 38% 30.67 in 10.0 mi SW 9.2 mph - N/A   Clear
5:29 AM 59.0 °F 28.4 °F 31% 30.68 in 10.0 mi SW 5.8 mph - N/A   Clear
5:53 AM 59.0 °F 26.6 °F 29% 30.68 in 10.0 mi WSW 3.5 mph - N/A   Clear
6:10 AM 55.4 °F 24.8 °F 31% 30.68 in 10.0 mi West 4.6 mph - N/A   Clear
6:30 AM 53.6 °F 26.6 °F 35% 30.68 in 10.0 mi West 4.6 mph - N/A   Clear
6:49 AM 55.4 °F 24.8 °F 31% 30.68 in 10.0 mi WNW 4.6 mph - N/A   Clear
7:12 AM 55.4 °F 30.2 °F 38% 30.68 in 10.0 mi SSE 4.6 mph - N/A   Clear
7:29 AM 55.4 °F 30.2 °F 38% 30.69 in 10.0 mi SSW 6.9 mph - N/A   Clear
7:52 AM 59.0 °F 32.0 °F 36% 30.69 in 10.0 mi ESE 6.9 mph - N/A   Clear
8:12 AM 59.0 °F 28.4 °F 31% 30.69 in 10.0 mi ESE 5.8 mph - N/A   Mostly Cloudy
8:30 AM 60.8 °F 30.2 °F 31% 30.69 in 10.0 mi East 4.6 mph - N/A   Mostly Cloudy
8:50 AM 60.8 °F 30.2 °F 31% 30.69 in 10.0 mi WNW 4.6 mph - N/A   Clear
9:11 AM 59.0 °F 26.6 °F 29% 30.69 in 10.0 mi NNW 5.8 mph - N/A   Clear
9:30 AM 60.8 °F 23.0 °F 23% 30.69 in 10.0 mi NNW 8.1 mph - N/A   Clear
9:50 AM 60.8 °F 23.0 °F 23% 30.69 in 10.0 mi NW 3.5 mph - N/A   Clear
10:12 AM 60.8 °F 24.8 °F 25% 30.69 in 10.0 mi NW 3.5 mph - N/A   Clear
10:32 AM 60.8 °F 24.8 °F 25% 30.69 in 10.0 mi NW 4.6 mph - N/A   Clear
10:51 AM 60.8 °F 21.2 °F 22% 30.70 in 10.0 mi West 6.9 mph 20.7 mph N/A   Clear
11:12 AM 62.6 °F 23.0 °F 22% 30.69 in 10.0 mi WNW 8.1 mph 19.6 mph N/A   Scattered Clouds
11:49 AM 62.6 °F 26.6 °F 26% 30.69 in 10.0 mi NNW 6.9 mph 18.4 mph N/A   Mostly Cloudy
12:29 PM 64.4 °F 23.0 °F 21% 30.69 in 10.0 mi West 11.5 mph 17.3 mph N/A   Scattered Clouds
12:53 PM 66.2 °F 23.0 °F 19% 30.67 in 10.0 mi NW 12.7 mph 23.0 mph N/A   Scattered Clouds
1:14 PM 64.4 °F 21.2 °F 19% 30.67 in 10.0 mi West 12.7 mph 21.9 mph N/A   Scattered Clouds
1:34 PM 64.4 °F 21.2 °F 19% 30.66 in 10.0 mi NW 10.4 mph 23.0 mph N/A   Scattered Clouds
1:52 PM 64.4 °F 21.2 °F 19% 30.66 in 10.0 mi West 8.1 mph 18.4 mph N/A   Mostly Cloudy
2:12 PM 64.4 °F 19.4 °F 18% 30.65 in 10.0 mi West 11.5 mph 21.9 mph N/A   Mostly Cloudy
2:30 PM 64.4 °F 17.6 °F 16% 30.65 in 10.0 mi NW 13.8 mph 25.3 mph N/A   Mostly Cloudy
2:48 PM 64.4 °F 19.4 °F 18% 30.65 in 10.0 mi NW 8.1 mph - N/A   Mostly Cloudy
3:25 PM 66.2 °F 23.0 °F 19% 30.64 in 10.0 mi NW 11.5 mph 18.4 mph N/A   Scattered Clouds
3:50 PM 64.4 °F 19.4 °F 18% 30.62 in 10.0 mi North 8.1 mph 17.3 mph N/A   Mostly Cloudy
4:11 PM 64.4 °F 19.4 °F 18% 30.62 in 10.0 mi West 9.2 mph 17.3 mph N/A   Scattered Clouds
4:30 PM 64.4 °F 19.4 °F 18% 30.62 in 10.0 mi West 5.8 mph - N/A   Scattered Clouds
4:54 PM 64.4 °F 19.4 °F 18% 30.60 in 10.0 mi West 8.1 mph 24.2 mph N/A   Clear
5:12 PM 64.4 °F 19.4 °F 18% 30.60 in 10.0 mi West 10.4 mph 23.0 mph N/A   Mostly Cloudy
5:30 PM 64.4 °F 26.6 °F 24% 30.60 in 10.0 mi South 8.1 mph - N/A   Mostly Cloudy
5:54 PM 60.8 °F 32.0 °F 34% 30.59 in 10.0 mi ESE 20.7 mph 26.5 mph N/A   Mostly Cloudy
6:09 PM 60.8 °F 32.0 °F 34% 30.57 in 10.0 mi ESE 29.9 mph 39.1 mph N/A   Mostly Cloudy
6:32 PM 59.0 °F 33.8 °F 39% 30.58 in 10.0 mi SE 19.6 mph 32.2 mph N/A Thunderstorm Mostly Cloudy
6:50 PM 59.0 °F 33.8 °F 39% 30.59 in 10.0 mi East 12.7 mph 24.2 mph N/A Thunderstorm Overcast
7:12 PM 59.0 °F 30.2 °F 34% 30.59 in 10.0 mi West 13.8 mph 19.6 mph N/A Thunderstorm Overcast
7:30 PM 57.2 °F 33.8 °F 41% 30.60 in 10.0 mi South 5.8 mph - N/A Thunderstorm Mostly Cloudy
7:53 PM 55.4 °F 33.8 °F 44% 30.59 in 10.0 mi SSE 10.4 mph 17.3 mph N/A   Scattered Clouds
8:12 PM 55.4 °F 33.8 °F 44% 30.60 in 10.0 mi SE 15.0 mph - N/A   Clear
8:30 PM 53.6 °F 33.8 °F 47% 30.60 in 10.0 mi ESE 15.0 mph - N/A   Clear
8:48 PM 53.6 °F 32.0 °F 44% 30.60 in 10.0 mi South 11.5 mph 18.4 mph N/A   Clear
9:12 PM 53.6 °F 32.0 °F 44% 30.62 in 10.0 mi SE 12.7 mph 19.6 mph N/A   Clear
9:30 PM 53.6 °F 33.8 °F 47% 30.62 in 10.0 mi SE 12.7 mph - N/A   Clear
9:54 PM 53.6 °F 33.8 °F 47% 30.62 in 10.0 mi SE 13.8 mph - N/A   Scattered Clouds
10:12 PM 53.6 °F 33.8 °F 47% 30.62 in 10.0 mi SE 12.7 mph 18.4 mph N/A   Clear
10:30 PM 53.6 °F 33.8 °F 47% 30.62 in 10.0 mi SE 12.7 mph - N/A   Clear
10:54 PM 51.8 °F 35.6 °F 54% 30.63 in 10.0 mi Calm Calm - N/A   Mostly Cloudy
11:12 PM 53.6 °F 35.6 °F 51% 30.62 in 10.0 mi SE 4.6 mph - N/A   Mostly Cloudy
11:30 PM 51.8 °F 33.8 °F 50% 30.62 in 10.0 mi SE 4.6 mph - N/A   Scattered Clouds
11:54 PM 53.6 °F 35.6 °F 51% 30.61 in 10.0 mi SSE 9.2 mph - N/A   Clear